Mobile Downtown, AL

5:37 PM CDT on August 17, 2017 (GMT -0500)
Mobile Downtown

Weather History for KBFM - March, 2012

Change the Weather History Date:

Monday, March 12, 2012

  Actual Average Record
Temperature  
Mean Temperature 66 °F -  
Max Temperature 70 °F 65 °F 79 °F (2007)
Min Temperature 62 °F 48 °F 28 °F (1998)
Growing Degree Days 16 (Base 50)    
Moisture  
Dew Point 63 °F    
Average Humidity 92    
Maximum Humidity 94    
Minimum Humidity 87    
Precipitation  
Precipitation 1.66 in - - ()
Sea Level Pressure  
Sea Level Pressure 30.22 in    
Wind  
Wind Speed 10 mph (SE)    
Max Wind Speed 20 mph    
Max Gust Speed 30 mph    
Visibility 6 miles    
Events Rain , Thunderstorm    
Averages and records for this station are not official NWS values.
T = Trace of Precipitation, MM = Missing Value Source: NWS Daily Summary

Daily Weather History Graph

Daily Weather History Graph

Search for Another Location

Airport or City:

Trip Planner

Search our weather history database for the weather conditions in past years. The results will help you decide how hot, cold, wet, or windy it might be!

Date:

Astronomy

Mar. 12, 2012 Rise Set
Actual Time 7:05 AM CDT 6:58 PM CDT
Civil Twilight 6:41 AM CDT 7:22 PM CDT
Nautical Twilight 6:13 AM CDT 7:50 PM CDT
Astronomical Twilight 5:45 AM CDT 8:18 PM CDT
Moon No Moon Rise 9:50 AM CDT (3/12)
Length of Visible Light 12h 41m
Length of Day
11h 53m
Waning Gibbous, 76% of the Moon is Illuminated
Mar 12
Waning Gibbous
Mar 14
Last Quarter
Mar 22
New
Mar 30
First Quarter
Apr 6
Full

Hourly Weather History & Observations

Time (CDT) Temp. Dew Point Humidity Pressure Visibility Wind Dir Wind Speed Gust Speed Precip Events Conditions
12:16 AM 66.2 °F 64.4 °F 94% 30.22 in 10.0 mi ESE 11.5 mph - N/A   Mostly Cloudy
12:44 AM 66.2 °F 64.4 °F 94% 30.21 in 10.0 mi ESE 12.7 mph - N/A   Mostly Cloudy
12:53 AM 66.9 °F 64.0 °F 90% 30.22 in 10.0 mi ESE 12.7 mph - N/A   Overcast
1:53 AM 66.9 °F 64.0 °F 90% 30.21 in 10.0 mi SE 16.1 mph - N/A   Overcast
2:53 AM 66.9 °F 63.0 °F 87% 30.20 in 10.0 mi SE 15.0 mph - N/A   Overcast
3:53 AM 66.0 °F 64.0 °F 93% 30.17 in 8.0 mi ESE 19.6 mph - 0.06 in Rain Light Rain
4:53 AM 66.0 °F 64.0 °F 93% 30.21 in 9.0 mi SE 11.5 mph - 0.00 in Rain Light Rain
5:02 AM 66.2 °F 64.4 °F 94% 30.21 in 9.0 mi SE 12.7 mph - 0.00 in Rain Light Rain
5:28 AM 66.2 °F 64.4 °F 94% 30.21 in 5.0 mi SSE 8.1 mph - 0.04 in Rain Light Rain
5:37 AM 66.2 °F 64.4 °F 94% 30.20 in 1.8 mi SSE 10.4 mph - 0.21 in Rain Heavy Rain
5:53 AM 66.9 °F 64.0 °F 90% 30.20 in 1.8 mi SSE 6.9 mph - 0.76 in Rain Heavy Rain
5:55 AM 66.2 °F 64.4 °F 94% 30.19 in 2.0 mi SSE 6.9 mph - 0.00 in Rain Heavy Rain
5:58 AM 66.2 °F 64.4 °F 94% 30.20 in 3.0 mi South 9.2 mph - 0.00 in Rain Light Rain
6:07 AM 66.2 °F 64.4 °F 94% 30.22 in 10.0 mi SSW 4.6 mph - 0.00 in   Overcast
6:28 AM 66.2 °F 64.4 °F 94% 30.21 in 10.0 mi SSE 12.7 mph - 0.00 in   Overcast
6:37 AM 66.2 °F 64.4 °F 94% 30.21 in 10.0 mi SE 12.7 mph - 0.00 in   Overcast
6:53 AM 66.9 °F 64.0 °F 90% 30.22 in 10.0 mi SE 11.5 mph - 0.00 in   Overcast
7:20 AM 66.2 °F 64.4 °F 94% 30.23 in 6.0 mi SSE 11.5 mph - 0.01 in Rain Light Rain
7:30 AM 64.4 °F 60.8 °F 88% 30.25 in 3.0 mi WSW 13.8 mph 25.3 mph 0.05 in Rain Heavy Rain
7:41 AM 62.6 °F 60.8 °F 94% 30.26 in 3.0 mi NNW 17.3 mph 29.9 mph 0.29 in Rain Heavy Rain
7:51 AM 62.6 °F 60.8 °F 94% 30.26 in 4.0 mi NNW 11.5 mph - 0.32 in Rain Rain
7:53 AM 62.1 °F 60.1 °F 93% 30.26 in 4.0 mi NNW 10.4 mph - 0.33 in Rain Rain
8:00 AM 62.6 °F 59.0 °F 88% 30.26 in 4.0 mi NNW 6.9 mph - 0.03 in Rain Heavy Rain
8:10 AM 62.6 °F 60.8 °F 94% 30.26 in 6.0 mi Calm Calm - 0.05 in Rain , Thunderstorm Thunderstorms and Rain
8:25 AM 62.6 °F 59.0 °F 88% 30.26 in 4.0 mi ENE 5.8 mph - 0.11 in Rain , Thunderstorm Heavy Thunderstorms and Rain
8:49 AM 62.6 °F 60.8 °F 94% 30.27 in 5.0 mi SSE 5.8 mph - 0.17 in Rain , Thunderstorm Heavy Thunderstorms and Rain
8:53 AM 62.1 °F 60.1 °F 93% 30.27 in 5.0 mi SE 4.6 mph - 0.19 in Rain , Thunderstorm Heavy Thunderstorms and Rain
9:53 AM 63.0 °F 61.0 °F 93% 30.25 in 5.0 mi SE 13.8 mph - 0.23 in Rain Rain
10:01 AM 62.6 °F 60.8 °F 94% 30.23 in 6.0 mi ESE 17.3 mph - 0.01 in Rain , Thunderstorm Thunderstorms and Rain
10:28 AM 62.6 °F 60.8 °F 94% 30.25 in 10.0 mi SE 11.5 mph - 0.01 in   Mostly Cloudy
10:53 AM 63.0 °F 61.0 °F 93% 30.25 in 10.0 mi SE 9.2 mph - 0.01 in   Mostly Cloudy
11:53 AM 64.0 °F 62.1 °F 93% 30.27 in 10.0 mi SSE 4.6 mph - N/A   Mostly Cloudy
12:53 PM 66.0 °F 62.1 °F 87% 30.26 in 10.0 mi SE 6.9 mph - 0.00 in Rain Light Rain
1:17 PM 64.4 °F 62.6 °F 94% 30.26 in 10.0 mi SSE 4.6 mph - 0.00 in Rain Light Rain
1:53 PM 66.0 °F 62.1 °F 87% 30.25 in 10.0 mi South 3.5 mph - 0.00 in   Overcast
2:48 PM 64.4 °F 62.6 °F 94% 30.21 in 5.0 mi SE 4.6 mph - 0.06 in Rain Rain
2:53 PM 64.9 °F 63.0 °F 93% 30.22 in 8.0 mi South 3.5 mph - 0.07 in Rain Light Rain
3:53 PM 69.1 °F 66.0 °F 90% 30.21 in 6.0 mi SE 8.1 mph - 0.01 in   Overcast
4:53 PM 69.1 °F 66.0 °F 90% 30.18 in 7.0 mi SSE 9.2 mph - N/A   Overcast
5:53 PM 68.0 °F 64.9 °F 90% 30.20 in 5.0 mi South 5.8 mph - N/A   Overcast
6:49 PM 66.2 °F 64.4 °F 94% 30.20 in 3.0 mi SSE 3.5 mph - N/A   Overcast
6:53 PM 66.9 °F 64.9 °F 93% 30.20 in 3.0 mi SE 3.5 mph - N/A   Overcast
7:53 PM 66.9 °F 64.9 °F 93% 30.21 in 7.0 mi Calm Calm - N/A   Overcast
8:53 PM 68.0 °F 66.0 °F 93% 30.21 in 6.0 mi SSE 6.9 mph - N/A   Mostly Cloudy
9:08 PM 68.0 °F 66.2 °F 94% 30.22 in 6.0 mi SSE 6.9 mph - 0.00 in Rain Light Rain
9:53 PM 66.9 °F 64.9 °F 93% 30.21 in 5.0 mi SE 9.2 mph - 0.00 in   Overcast
10:00 PM 66.2 °F 64.4 °F 94% 30.20 in 5.0 mi SE 13.8 mph - N/A   Overcast
10:07 PM 66.2 °F 64.4 °F 94% 30.21 in 5.0 mi SE 12.7 mph - N/A   Mostly Cloudy
10:31 PM 68.0 °F 66.2 °F 94% 30.22 in 7.0 mi SSE 8.1 mph - N/A   Mostly Cloudy
10:53 PM 66.9 °F 64.9 °F 93% 30.23 in 6.0 mi South 4.6 mph - N/A   Mostly Cloudy
11:26 PM 66.2 °F 64.4 °F 94% 30.22 in 5.0 mi SSE 3.5 mph - N/A   Overcast
11:37 PM 66.2 °F 64.4 °F 94% 30.21 in 5.0 mi SE 6.9 mph - N/A   Overcast
11:53 PM 66.9 °F 64.9 °F 93% 30.22 in 5.0 mi SSE 4.6 mph - N/A   Overcast